Roanoke, VA

4:22 PM EDT on May 24, 2018 (GMT -0400)
Roanoke Regional-Woodrum

Weather History for KROA - November, 2014

Change the Weather History Date:

Wednesday, November 12, 2014

  Actual Average Record
Temperature  
Mean Temperature 53 °F 50 °F  
Max Temperature 63 °F 60 °F 80 °F (1931)
Min Temperature 42 °F 39 °F 17 °F (1926)
Degree Days  
Heating Degree Days 12 16  
Month to date heating degree days 175 166  
Since 1 July heating degree days 399 463  
Cooling Degree Days 0 0  
Month to date cooling degree days 0 0  
Year to date cooling degree days 1128 1207  
Growing Degree Days 2 (Base 50)    
Moisture  
Dew Point 37 °F    
Average Humidity 58    
Maximum Humidity 86    
Minimum Humidity 30    
Precipitation  
Precipitation 0.00 in 0.11 in 2.88 in (1937)
Month to date precipitation 0.39 1.36  
Year to date precipitation 33.76 36.27  
Snow  
Snow 0.00 in - - ()
Month to date snowfall 0.0  
Since 1 July snowfall 0.0  
Since 1 September snowfall 0.0  
Snow Depth 0.00 in    
Sea Level Pressure  
Sea Level Pressure 30.03 in    
Wind  
Wind Speed 8 mph (WNW)    
Max Wind Speed 20 mph    
Max Gust Speed 25 mph    
Visibility 10 miles    
Events      
T = Trace of Precipitation, MM = Missing Value Source: NWS Daily Summary

Daily Weather History Graph

Daily Weather History Graph

Search for Another Location

Airport or City:

Astronomy

Nov. 12, 2014 Rise Set
Actual Time 6:55 AM EST 5:11 PM EST
Civil Twilight 6:28 AM EST 5:39 PM EST
Nautical Twilight 5:56 AM EST 6:10 PM EST
Astronomical Twilight 5:26 AM EST 6:41 PM EST
Moon 10:29 PM EST (11/12) 11:41 AM EST (11/12)
Length of Visible Light 11h 11m
Length of Day
10h 15m
Waning Gibbous, 68% of the Moon is Illuminated
Nov 12
Waning Gibbous
Nov 14
Last Quarter
Nov 22
New
Nov 29
First Quarter
Dec 6
Full

Hourly Weather History & Observations

Time (EST) Temp. Windchill Dew Point Humidity Pressure Visibility Wind Dir Wind Speed Gust Speed Precip Events Conditions
12:54 AM 46.0 °F - 41.0 °F 83% 29.95 in 10.0 mi Calm Calm - N/A   Clear
1:54 AM 46.0 °F - 42.1 °F 86% 29.94 in 10.0 mi Calm Calm - N/A   Clear
2:54 AM 46.9 °F - 43.0 °F 86% 29.93 in 10.0 mi Calm Calm - N/A   Clear
3:54 AM 46.0 °F 43.9 °F 41.0 °F 83% 29.94 in 10.0 mi NE 4.6 mph - N/A   Clear
4:54 AM 51.1 °F - 37.9 °F 61% 29.94 in 10.0 mi West 9.2 mph - N/A   Clear
5:54 AM 55.0 °F - 39.0 °F 55% 29.95 in 10.0 mi Variable 3.5 mph - N/A   Scattered Clouds
6:54 AM 51.1 °F - 39.9 °F 66% 29.97 in 10.0 mi Variable 4.6 mph - N/A   Partly Cloudy
7:54 AM 55.0 °F - 42.1 °F 62% 30.00 in 10.0 mi WNW 5.8 mph - N/A   Partly Cloudy
8:54 AM 60.1 °F - 46.0 °F 60% 30.03 in 10.0 mi WNW 8.1 mph - N/A   Mostly Cloudy
9:54 AM 57.9 °F - 46.0 °F 65% 30.06 in 10.0 mi WNW 8.1 mph - N/A   Overcast
10:54 AM 60.8 °F - 42.8 °F 52% 30.07 in 10.0 mi West 15.0 mph - N/A   Scattered Clouds
11:54 AM 62.1 °F - 41.0 °F 46% 30.05 in 10.0 mi West 9.2 mph - N/A   Partly Cloudy
12:54 PM 62.1 °F - 34.0 °F 35% 30.03 in 10.0 mi WNW 15.0 mph - N/A   Clear
1:54 PM 63.0 °F - 34.0 °F 34% 30.02 in 10.0 mi WNW 12.7 mph 19.6 mph N/A   Clear
2:54 PM 62.1 °F - 30.9 °F 31% 30.02 in 10.0 mi NW 17.3 mph - N/A   Clear
3:54 PM 60.1 °F - 30.0 °F 32% 30.03 in 10.0 mi NW 13.8 mph - N/A   Clear
4:54 PM 55.0 °F - 32.0 °F 42% 30.06 in 10.0 mi NW 12.7 mph - N/A   Clear
5:54 PM 50.0 °F - 30.9 °F 48% 30.08 in 10.0 mi WNW 9.2 mph - N/A   Clear
6:54 PM 46.0 °F 43.9 °F 30.0 °F 54% 30.09 in 10.0 mi West 4.6 mph - N/A   Clear
7:54 PM 45.0 °F 41.2 °F 30.0 °F 56% 30.09 in 10.0 mi NW 6.9 mph - N/A   Clear
8:54 PM 46.0 °F 41.9 °F 30.0 °F 54% 30.11 in 10.0 mi WNW 8.1 mph - N/A   Mostly Cloudy
9:54 PM 44.1 °F 39.5 °F 30.9 °F 60% 30.13 in 10.0 mi West 8.1 mph - N/A   Overcast
10:54 PM 43.0 °F 38.2 °F 32.0 °F 65% 30.14 in 10.0 mi West 8.1 mph - N/A   Overcast
11:54 PM 42.1 °F 38.4 °F 32.0 °F 67% 30.13 in 10.0 mi WNW 5.8 mph - N/A   Overcast